Location: Newark
(49.8969°N, 3.3422°E)
Time: 01:37:50
(UTC+00:00)

Envisat - Pass Details

Date: 10 December 2019
Orbit: 764 x 766 km, 98.1° (Epoch: 23 January)

Event Time Altitude Azimuth Distance (km) Brightness Sun altitude
Rises 06:17:43 0° 17° (NNE) 3,247 6.2 -11.4°
Reaches altitude 10° 06:20:06 10° 23° (NNE) 2,315 5.5 -11.1°
Maximum altitude 06:25:04 51° 99° (E) 965 4.0 -10.3°
Drops below altitude 10° 06:29:59 10° 175° (S) 2,297 5.9 -9.6°
Sets 06:32:21 0° 181° (S) 3,219 6.6 -9.3°
